Content
SEND FEEDBACK

Daily
Averages
Monthly
Summary
United States of America

FOWLER, INDIANA


Home > North America > United States > Indiana
Elevation: 248 meters     Latitude: 40 37N     Longitude: 087 19W

WEATHER
 
SELECT A DAY
Number of Records: 76,092;   Date Range: 5/23/11 - 8/22/14
 
SHARE

PRINT THIS DATA

[ ← Previous Day ]
WEATHER ALMANAC - 31 JANUARY, 2013
[ Next Day → ]
[ °F ]   °C
Weather ElementAverageHighLow
Temperature-7.5 °C-5 °C (12:35 am)-13 °C (10:35 pm)
Dewpoint-10.9 °C-7 °C (12:35 am)-17 °C (10:15 pm)
Humidity77.2 %93 % (7:15 am)67 % (10:15 pm)
Barometer1012.2 hPa1021 hPa (11:35 pm)1004.4 hPa (12:35 am)
Wind Speed33 km/h50.1 km/h (2:35 am)
Wind Gust61.2 km/h (2:35 am)
Weather ElementAverage
Visibility12.9 km
Wind DirectionW (265.9 °)

Weather ElementTotal
Precipitation1.02 mm
Heating Degree Days27.3 (Base 18.3)
Averaged from 69 records on 31 January, 2013
WEATHER CONDITIONS BREAKOUT
WIND DIRECTION BREAKOUT
WEATHER BY HOUR - 31 JANUARY, 2013
[ °F ]   °C
Local TimeTemperatureDewpointHumidityBarometerVisibilityWind DirectionWind SpeedGust SpeedPrecipitationEventsConditions
12:35 AM-5 °C-7 °C86 %1004.4 hPa11.3 kmWest (260°)35.2 km/h55.5 km/h0.25 mmSnowLight Snow
12:55 AM-5 °C-7 °C86 %1004.7 hPa11.3 kmWest (260°)44.4 km/h55.5 km/h0.25 mmSnowLight Snow
1:15 AM-5 °C-7 °C86 %1005.1 hPa16.1 kmWest (270°)38.9 km/h53.8 km/hOvercast
1:35 AM-5 °C-7 °C86 %1005.4 hPa11.3 kmWest (260°)48.1 km/h59.2 km/h0.25 mmSnowLight Snow
1:55 AM-5 °C-7 °C86 %1005.8 hPa11.3 kmWest (260°)25.9 km/h55.5 km/h0.25 mmSnowLight Snow
2:15 AM-6 °C-8 °C86 %1006.1 hPa11.3 kmWSW (250°)44.4 km/h57.5 km/hSnowLight Snow
2:35 AM-6 °C-10 °C74 %1006.4 hPa16.1 kmWest (270°)50.1 km/h61.2 km/hSnowLight Snow
2:55 AM-6 °C-10 °C74 %1006.8 hPa16.1 kmWest (270°)40.7 km/h53.8 km/hSnowLight Snow
3:15 AM-6 °C-10 °C74 %1006.8 hPa16.1 kmWest (280°)29.6 km/h55.5 km/hOvercast
3:35 AM-6 °C-9 °C80 %1006.8 hPa8 kmWest (270°)35.2 km/h46.3 km/hSnowLight Snow
3:55 AM-6 °C-8 °C86 %1007.1 hPa4 kmWest (260°)38.9 km/h46.3 km/hSnowLight Snow
4:15 AM-7 °C-10 °C80 %1007.5 hPa16.1 kmWest (270°)37 km/h51.8 km/hOvercast
4:35 AM-7 °C-11 °C74 %1007.5 hPa16.1 kmWest (260°)35.2 km/h55.5 km/hOvercast
4:55 AM-7 °C-11 °C74 %1007.8 hPa16.1 kmWest (260°)33.3 km/h51.8 km/hMostly Cloudy
5:15 AM-7 °C-11 °C74 %1007.8 hPa16.1 kmWest (260°)35.2 km/h50.1 km/hMostly Cloudy
5:35 AM-7 °C-10 °C80 %1008.1 hPa16.1 kmWest (270°)27.8 km/h46.3 km/hOvercast
6:15 AM-6 °C-8 °C86 %1008.5 hPa16.1 kmWest (270°)27.8 km/h38.9 km/hOvercast
6:35 AM-6 °C-8 °C86 %1008.5 hPa16.1 kmWest (260°)25.9 km/h38.9 km/hSnowLight Snow
6:55 AM-6 °C-8 °C86 %1008.5 hPa16.1 kmWest (260°)24.1 km/h35.2 km/hOvercast
7:15 AM-6 °C-7 °C93 %1008.8 hPa16.1 kmWest (260°)22.2 km/h29.6 km/hOvercast
7:35 AM-5 °C-7 °C86 %1009.1 hPa11.3 kmWNW (290°)20.4 km/hSnowLight Snow
7:55 AM-5 °C-8 °C80 %1009.5 hPa16.1 kmWest (260°)37 km/h48.1 km/hOvercast
8:15 AM-5 °C-9 °C74 %1009.8 hPa16.1 kmWSW (250°)37 km/h48.1 km/hMostly Cloudy
8:35 AM-5 °C-9 °C74 %1010.2 hPa16.1 kmWest (260°)44.4 km/h57.5 km/hMostly Cloudy
8:55 AM-5 °C-10 °C68 %1010.5 hPa16.1 kmWest (260°)37 km/h48.1 km/hOvercast
9:15 AM-5 °C-9 °C74 %1010.5 hPa16.1 kmWSW (250°)29.6 km/h50.1 km/hMostly Cloudy
9:35 AM-6 °C-10 °C74 %1010.8 hPa16.1 kmWSW (250°)35.2 km/h50.1 km/hScattered Clouds
9:55 AM-6 °C-10 °C74 %1011.2 hPa16.1 kmWest (260°)35.2 km/h50.1 km/hScattered Clouds
10:15 AM-6 °C-10 °C74 %1011.5 hPa16.1 kmWest (260°)33.3 km/h46.3 km/hScattered Clouds
10:35 AM-5 °C-10 °C68 %1011.5 hPa16.1 kmWest (260°)29.6 km/h42.6 km/hScattered Clouds
10:55 AM-5 °C-10 °C68 %1011.9 hPa16.1 kmWest (260°)37 km/h46.3 km/hScattered Clouds
11:15 AM-5 °C-10 °C68 %1011.9 hPa16.1 kmWest (260°)33.3 km/h40.7 km/hScattered Clouds
11:35 AM-5 °C-10 °C68 %1012.2 hPa16.1 kmWest (260°)40.7 km/h48.1 km/hMostly Cloudy
11:55 AM-6 °C-10 °C74 %1012.2 hPa16.1 kmWSW (250°)27.8 km/h46.3 km/hOvercast
12:15 PM-6 °C-10 °C74 %1012.2 hPa16.1 kmWest (270°)33.3 km/h44.4 km/hOvercast
12:35 PM-6 °C-10 °C74 %1012.2 hPa16.1 kmWest (270°)31.5 km/h42.6 km/hSnowLight Snow
12:55 PM-6 °C-11 °C68 %1012.2 hPa16.1 kmWSW (250°)35.2 km/h44.4 km/hOvercast
1:15 PM-6 °C-10 °C74 %1012.5 hPa4.8 kmWest (260°)29.6 km/h46.3 km/hSnowLight Snow
1:35 PM-7 °C-9 °C86 %1012.5 hPa1.9 kmWSW (250°)31.5 km/h44.4 km/hSnowLight Snow
1:55 PM-6 °C-9 °C80 %1012.5 hPa8 kmWSW (250°)33.3 km/h42.6 km/hSnowLight Snow
2:15 PM-7 °C-11 °C74 %1012.5 hPa11.3 kmWest (260°)38.9 km/h50.1 km/hSnowLight Snow
2:35 PM-6 °C-11 °C68 %1012.5 hPa16.1 kmWest (270°)31.5 km/h50.1 km/hOvercast
2:55 PM-7 °C-10 °C80 %1012.5 hPa8 kmWest (260°)29.6 km/h44.4 km/hHaze
3:15 PM-7 °C-10 °C80 %1012.9 hPa11.3 kmWest (270°)29.6 km/h38.9 km/hSnowLight Snow
3:35 PM-7 °C-11 °C74 %1013.2 hPa8 kmWest (270°)31.5 km/h42.6 km/hSnowLight Snow
3:55 PM-7 °C-11 °C74 %1013.5 hPa6.4 kmWest (270°)33.3 km/hSnowLight Snow
4:15 PM-7 °C-12 °C68 %1013.9 hPa16.1 kmWest (270°)31.5 km/h44.4 km/hOvercast
4:35 PM-8 °C-12 °C73 %1014.2 hPa16.1 kmWest (270°)25.9 km/h51.8 km/hOvercast
4:55 PM-8 °C-12 °C73 %1014.6 hPa8 kmWest (260°)35.2 km/h42.6 km/hSnowLight Snow
5:15 PM-8 °C-12 °C73 %1014.9 hPa11.3 kmWest (260°)29.6 km/h46.3 km/hSnowLight Snow
5:35 PM-9 °C-12 °C79 %1015.2 hPa8 kmWest (270°)27.8 km/h38.9 km/hSnowLight Snow
5:55 PM-9 °C-13 °C73 %1015.6 hPa16.1 kmWest (260°)27.8 km/h48.1 km/hMostly Cloudy
6:15 PM-10 °C-13 °C79 %1015.9 hPa16.1 kmWest (270°)37 km/h48.1 km/hMostly Cloudy
6:35 PM-10 °C-13 °C79 %1016.3 hPa16.1 kmWest (270°)37 km/h50.1 km/hMostly Cloudy
6:55 PM-10 °C-14 °C73 %1016.6 hPa16.1 kmWest (270°)35.2 km/h46.3 km/hOvercast
7:15 PM-10 °C-13 °C79 %1016.9 hPa11.3 kmWest (260°)33.3 km/h44.4 km/hSnowLight Snow
7:35 PM-11 °C-13 °C85 %1017.3 hPa4.8 kmWest (280°)27.8 km/h44.4 km/hSnowLight Snow
7:55 PM-11 °C-13 °C85 %1017.3 hPa4 kmWest (280°)35.2 km/h48.1 km/hSnowLight Snow
8:15 PM-11 °C-15 °C73 %1017.9 hPa16.1 kmWest (280°)33.3 km/h50.1 km/hOvercast
8:35 PM-12 °C-16 °C73 %1018.3 hPa16.1 kmWest (280°)35.2 km/h46.3 km/hScattered Clouds
8:55 PM-12 °C-15 °C79 %1019 hPa8 kmWest (280°)27.8 km/h44.4 km/hHaze
9:15 PM-12 °C-16 °C73 %1019 hPa16.1 kmWest (280°)35.2 km/h46.3 km/hMostly Cloudy
9:35 PM-12 °C-15 °C79 %1019.3 hPa4.8 kmWest (270°)31.5 km/h46.3 km/hHaze
9:55 PM-12 °C-16 °C73 %1019.6 hPa16.1 kmWNW (290°)29.6 km/h40.7 km/hMostly Cloudy
10:15 PM-12 °C-17 °C67 %1020 hPa16.1 kmWest (280°)25.9 km/h46.3 km/hScattered Clouds
10:35 PM-13 °C-16 °C79 %1020.3 hPa11.3 kmWest (270°)27.8 km/h38.9 km/hMostly Cloudy
10:55 PM-13 °C-16 °C79 %1020.7 hPa4.8 kmWest (280°)29.6 km/h50.1 km/hHaze
11:15 PM-13 °C-16 °C79 %1020.7 hPa11.3 kmWest (280°)22.2 km/h42.6 km/hOvercast
11:35 PM-13 °C-15 °C85 %1021 hPa4.8 kmWest (280°)24.1 km/h38.9 km/hOvercast
Hourly data recorded from KRZL, located 0 kilometers away from Fowler, Indiana







STORIES FROM OUR PARTNERS